Brevnov, Czech Republic

3:46 PM CET on February 25, 2018 (GMT +0100)
Brevnov

Weather History for 11518 - September, 2013

Change the Weather History Date:

Sunday, September 29, 2013

  Actual Average Record
Temperature  
Mean Temperature 46 °F -  
Max Temperature 56 °F 56 °F - ()
Min Temperature 36 °F 39 °F - ()
Degree Days  
Heating Degree Days 19    
Moisture  
Dew Point 39 °F    
Average Humidity 75    
Maximum Humidity 100    
Minimum Humidity 42    
Precipitation  
Precipitation 0.00 in 0.04 in - ()
Sea Level Pressure  
Sea Level Pressure 29.98 in    
Wind  
Wind Speed 11 mph ()    
Max Wind Speed 20 mph    
Max Gust Speed -    
Visibility 7.0 miles    
Events      
T = Trace of Precipitation, MM = Missing Value Source: Averaged Metar Reports

Daily Weather History Graph

Daily Weather History Graph

Search for Another Location

Airport or City:

Trip Planner

Search our weather history database for the weather conditions in past years. The results will help you decide how hot, cold, wet, or windy it might be!

Date:

Astronomy

Sep. 29, 2013 Rise Set
Actual Time 7:00 AM CEST 6:45 PM CEST
Civil Twilight 6:27 AM CEST 7:17 PM CEST
Nautical Twilight 5:49 AM CEST 7:55 PM CEST
Astronomical Twilight 5:11 AM CEST 8:34 PM CEST
Moon 12:57 AM CEST (9/29) 3:56 PM CEST (9/29)
Length of Visible Light 12h 50m
Length of Day
11h 45m
Waning Crescent, 29% of the Moon is Illuminated
Sep 29
Waning Crescent
Oct 5
New
Oct 12
First Quarter
Oct 19
Full
Oct 27
Last Quarter

Hourly Weather History & Observations

Time (CEST) Temp. Windchill Dew Point Humidity Pressure Visibility Wind Dir Wind Speed Gust Speed Precip Events Conditions
12:00 AM 42.8 °F 37.0 °F 39.2 °F 87% 30.01 in - East 10.4 mph - N/A   Clear
12:30 AM 42.8 °F 37.5 °F 39.2 °F 87% 30.01 in - East 9.2 mph - N/A   Clear
1:00 AM 41.0 °F 35.8 °F 37.4 °F 87% 30.01 in - East 8.1 mph - N/A   Clear
1:30 AM 39.2 °F 33.0 °F 37.4 °F 93% 30.01 in - East 9.2 mph - N/A   Clear
2:00 AM 41 °F - 38 °F 86% 30.04 in 16 mi East 6.7 mph - -   Clear
2:00 AM 41.0 °F 35.8 °F 39.2 °F 93% 30.01 in - ENE 8.1 mph - N/A   Clear
2:30 AM 41.0 °F 35.8 °F 37.4 °F 87% 30.01 in - ENE 8.1 mph - N/A   Clear
3:00 AM 41.0 °F 34.7 °F 37.4 °F 87% 29.98 in - East 10.4 mph - N/A   Clear
3:30 AM 39.2 °F 34.2 °F 37.4 °F 93% 30.01 in - East 6.9 mph - N/A   Clear
4:00 AM 39.2 °F 35.0 °F 37.4 °F 93% 30.01 in - ENE 5.8 mph - N/A   Clear
4:30 AM 39.2 °F 33.0 °F 37.4 °F 93% 30.01 in - East 9.2 mph - N/A   Clear
5:00 AM 39.2 °F 33.0 °F 37.4 °F 93% 30.01 in - East 9.2 mph - N/A   Clear
5:30 AM 37.4 °F 30.3 °F 35.6 °F 93% 29.98 in - East 10.4 mph - N/A   Clear
6:00 AM 37.4 °F 30.8 °F 37.4 °F 100% 30.01 in - East 9.2 mph - N/A   Clear
6:30 AM 39.2 °F 32.5 °F 37.4 °F 93% 30.01 in - East 10.4 mph - N/A   Clear
7:00 AM 39.2 °F 32.5 °F 37.4 °F 93% 30.01 in - East 10.4 mph - N/A   Clear
7:30 AM 39.2 °F 32.0 °F 37.4 °F 93% 30.01 in - East 11.5 mph - N/A   Clear
8:00 AM 41 °F - 39 °F 92% 30.05 in 9 mi East 8.9 mph - -   Clear
8:00 AM 41.0 °F 34.7 °F 39.2 °F 93% 30.01 in - East 10.4 mph - N/A   Clear
8:30 AM 42.8 °F 36.2 °F 39.2 °F 87% 30.01 in - East 12.7 mph - N/A   Clear
9:00 AM 44.6 °F 38.4 °F 39.2 °F 81% 30.01 in - East 12.7 mph - N/A   Clear
9:30 AM 46.4 °F 40.7 °F 39.2 °F 76% 30.01 in - East 12.7 mph - N/A   Clear
10:00 AM 48.2 °F - 39.2 °F 71% 30.01 in - East 15.0 mph - N/A   Clear
10:30 AM 48.2 °F - 39.2 °F 71% 30.01 in - East 15.0 mph - N/A   Clear
11:00 AM 50.0 °F - 39.2 °F 66% 30.01 in - East 13.8 mph - N/A   Clear
11:30 AM 50.0 °F - 39.2 °F 66% 29.98 in - East 15.0 mph - N/A   Clear
12:10 PM 51.8 °F - 39.2 °F 62% 29.98 in - East 17.3 mph - N/A   Clear
12:30 PM 53.6 °F - 39.2 °F 58% 29.98 in 6.2 mi East 19.6 mph - N/A   Partly Cloudy
1:00 PM 53.6 °F - 39.2 °F 58% 29.98 in 6.2 mi East 19.6 mph - N/A   Partly Cloudy
1:30 PM 53.6 °F - 37.4 °F 54% 29.98 in 6.2 mi East 15.0 mph - N/A   Partly Cloudy
2:00 PM 54 °F - 38 °F 42% 29.98 in 44 mi East 17.9 mph - -   Scattered Clouds
2:00 PM 55.4 °F - 37.4 °F 51% 29.98 in 6.2 mi East 19.6 mph - N/A   Partly Cloudy
2:30 PM 55.4 °F - 39.2 °F 54% 29.98 in 6.2 mi East 18.4 mph - N/A   Partly Cloudy
3:00 PM 55.4 °F - 39.2 °F 54% 29.95 in 6.2 mi East 18.4 mph - N/A   Partly Cloudy
3:30 PM 55.4 °F - 39.2 °F 54% 29.95 in 6.2 mi East 18.4 mph - N/A   Partly Cloudy
4:00 PM 55.4 °F - 39.2 °F 54% 29.95 in 6.2 mi East 18.4 mph - N/A   Partly Cloudy
4:30 PM 55.4 °F - 39.2 °F 54% 29.95 in 6.2 mi East 15.0 mph - N/A   Partly Cloudy
5:00 PM 55.4 °F - 37.4 °F 51% 29.95 in 6.2 mi East 16.1 mph - N/A   Partly Cloudy
5:30 PM 53.6 °F - 39.2 °F 58% 29.92 in 6.2 mi East 17.3 mph - N/A   Partly Cloudy
6:00 PM 53.6 °F - 39.2 °F 58% 29.92 in 6.2 mi East 16.1 mph - N/A   Scattered Clouds
6:30 PM 51.8 °F - 39.2 °F 62% 29.92 in 6.2 mi East 13.8 mph - N/A   Scattered Clouds
7:00 PM 51.8 °F - 41.0 °F 67% 29.95 in - ENE 10.4 mph - N/A   Clear
7:30 PM 50.0 °F - 41.0 °F 71% 29.95 in - East 15.0 mph - N/A   Clear
8:00 PM 49 °F - 40 °F 61% 29.96 in 31 mi East 15.7 mph - -   Mostly Cloudy
8:00 PM 48.2 °F - 39.2 °F 71% 29.95 in - East 16.1 mph - N/A   Clear
8:30 PM 48.2 °F - 39.2 °F 71% 29.95 in - East 18.4 mph - N/A   Clear
9:00 PM 46.4 °F 39.8 °F 39.2 °F 76% 29.95 in - East 16.1 mph - N/A   Clear
9:30 PM 46.4 °F 39.5 °F 39.2 °F 76% 29.95 in 6.2 mi East 17.3 mph - N/A   Scattered Clouds
10:00 PM 46.4 °F 39.8 °F 39.2 °F 76% 29.95 in - East 16.1 mph - N/A   Clear
10:30 PM 46.4 °F 40.1 °F 39.2 °F 76% 29.95 in - East 15.0 mph - N/A   Clear
11:00 PM 44.6 °F 38.1 °F 39.2 °F 81% 29.95 in - East 13.8 mph - N/A   Clear
11:30 PM 44.6 °F 37.8 °F 39.2 °F 81% 29.95 in - East 15.0 mph - N/A   Clear